• In Austria
  • List of Countries
  • For 7 days
  • Water Temperature
  • Satellite Maps
  • Weather Map
  • News
  • Weather Widgets
  • user-avatar
    Login

    Hourly Weather Limanowa

    Today, 15 August, Wednesday

    Time Temperature Precipitation Wind Pressure Humidity
    00:00 +19°C° 0.5 mm 1 mps 721 mmHg 92%
    01:00 +18°C° 0.5 mm 1 mps 721 mmHg 92%
    02:00 +18°C° 0.1 mm 1 mps 721 mmHg 92%
    03:00 +18°C° 0.1 mm 1 mps 722 mmHg 92%
    04:00 +18°C° 0.1 mm 1 mps 722 mmHg 92%
    05:00 +19°C° 0.1 mm 1 mps 722 mmHg 90%
    06:00 +18°C° 0.1 mm 2 mps 722 mmHg 89%
    07:00 +19°C° 0.1 mm 2 mps 723 mmHg 87%
    08:00 +20°C° 0.2 mm 2 mps 723 mmHg 83%
    09:00 +21°C° 0.2 mm 2 mps 723 mmHg 78%
    10:00 +21°C° 0.2 mm 3 mps 723 mmHg 74%
    11:00 +22°C° 0.3 mm 3 mps 723 mmHg 70%
    12:00 +24°C° 0.3 mm 3 mps 723 mmHg 66%
    13:00 +25°C° 0.3 mm 4 mps 723 mmHg 63%
    14:00 +25°C° 0.2 mm 4 mps 723 mmHg 64%
    15:00 +23°C° 0.2 mm 4 mps 723 mmHg 65%
    16:00 +23°C° 0.2 mm 4 mps 723 mmHg 65%
    17:00 +22°C° 0.2 mm 3 mps 723 mmHg 72%
    18:00 +20°C° 0.2 mm 2 mps 724 mmHg 78%
    19:00 +18°C° 0.2 mm 2 mps 724 mmHg 85%
    20:00 +18°C° 0 mm 2 mps 724 mmHg 87%
    21:00 +18°C° 0 mm 1 mps 724 mmHg 89%
    22:00 +16°C° 0 mm 1 mps 724 mmHg 91%
    23:00 +16°C° 0 mm 1 mps 724 mmHg 92%

    Tomorrow, 16 August, Thursday

    Time Temperature Precipitation Wind Pressure Humidity
    00:00 +16°C° 0 mm 1 mps 724 mmHg 93%
    01:00 +16°C° 0 mm 1 mps 724 mmHg 94%
    02:00 +15°C° 0 mm 1 mps 724 mmHg 94%
    03:00 +15°C° 0 mm 1 mps 724 mmHg 94%
    04:00 +15°C° 0 mm 1 mps 724 mmHg 95%
    05:00 +16°C° 0 mm 1 mps 725 mmHg 92%
    06:00 +18°C° 0 mm 1 mps 725 mmHg 89%
    07:00 +19°C° 0 mm 1 mps 725 mmHg 86%
    08:00 +20°C° 0.1 mm 1 mps 725 mmHg 80%
    09:00 +22°C° 0.1 mm 1 mps 725 mmHg 73%
    10:00 +23°C° 0.1 mm 2 mps 726 mmHg 66%
    11:00 +24°C° 0.1 mm 2 mps 725 mmHg 63%
    12:00 +25°C° 0.1 mm 2 mps 725 mmHg 60%
    13:00 +25°C° 0.1 mm 2 mps 725 mmHg 56%
    14:00 +25°C° 0 mm 2 mps 724 mmHg 57%
    15:00 +25°C° 0 mm 2 mps 724 mmHg 58%
    16:00 +25°C° 0 mm 2 mps 724 mmHg 59%
    17:00 +23°C° 0.1 mm 2 mps 724 mmHg 68%
    18:00 +21°C° 0.1 mm 2 mps 724 mmHg 76%
    19:00 +19°C° 0.1 mm 2 mps 724 mmHg 84%
    20:00 +19°C° 0 mm 1 mps 724 mmHg 86%
    21:00 +18°C° 0 mm 1 mps 724 mmHg 88%
    22:00 +18°C° 0 mm 1 mps 724 mmHg 90%
    23:00 +16°C° 0 mm 1 mps 724 mmHg 91%

    Day after tomorrow, 17 August, Friday

    Time Temperature Precipitation Wind Pressure Humidity
    00:00 +16°C° 0 mm 1 mps 724 mmHg 91%
    01:00 +16°C° 0 mm 1 mps 724 mmHg 92%
    02:00 +15°C° 0 mm 1 mps 724 mmHg 92%
    03:00 +15°C° 0 mm 1 mps 723 mmHg 92%
    04:00 +15°C° 0 mm 1 mps 723 mmHg 93%
    05:00 +16°C° 0 mm 1 mps 724 mmHg 89%
    06:00 +19°C° 0 mm 1 mps 724 mmHg 85%
    07:00 +20°C° 0 mm 1 mps 724 mmHg 81%
    08:00 +21°C° 0 mm 2 mps 724 mmHg 73%
    09:00 +23°C° 0 mm 2 mps 724 mmHg 66%
    10:00 +25°C° 0 mm 2 mps 724 mmHg 59%
    11:00 +26°C° 0 mm 2 mps 724 mmHg 57%
    12:00 +27°C° 0 mm 2 mps 724 mmHg 55%
    13:00 +27°C° 0 mm 2 mps 724 mmHg 52%
    14:00 +27°C° 0.1 mm 2 mps 723 mmHg 55%
    15:00 +27°C° 0.1 mm 2 mps 723 mmHg 57%
    16:00 +26°C° 0.1 mm 2 mps 723 mmHg 59%
    17:00 +25°C° 0.1 mm 2 mps 723 mmHg 68%
    18:00 +23°C° 0.1 mm 2 mps 723 mmHg 77%
    19:00 +21°C° 0.1 mm 1 mps 723 mmHg 85%
    20:00 +20°C° 0 mm 1 mps 723 mmHg 87%
    21:00 +19°C° 0 mm 1 mps 723 mmHg 90%
    22:00 +19°C° 0 mm 1 mps 724 mmHg 92%
    23:00 +18°C° 0 mm 1 mps 724 mmHg 92%

    18 August, Saturday

    Time Temperature Precipitation Wind Pressure Humidity
    00:00 +18°C° 0 mm 1 mps 724 mmHg 92%
    01:00 +18°C° 0 mm 1 mps 724 mmHg 92%
    02:00 +18°C° 0 mm 1 mps 724 mmHg 92%
    03:00 +15°C° 0 mm 0 mps 724 mmHg 92%
    04:00 +15°C° 0 mm 0 mps 724 mmHg 92%
    05:00 +16°C° 0 mm 0 mps 724 mmHg 88%
    06:00 +18°C° 0 mm 0 mps 725 mmHg 84%
    07:00 +19°C° 0 mm 0 mps 725 mmHg 80%
    08:00 +23°C° 0 mm 1 mps 725 mmHg 72%
    09:00 +25°C° 0 mm 1 mps 725 mmHg 64%
    10:00 +26°C° 0 mm 1 mps 726 mmHg 56%
    11:00 +27°C° 0 mm 2 mps 726 mmHg 53%
    12:00 +27°C° 0 mm 2 mps 726 mmHg 50%
    13:00 +28°C° 0 mm 2 mps 725 mmHg 47%
    14:00 +28°C° 0 mm 2 mps 725 mmHg 49%
    15:00 +27°C° 0 mm 2 mps 725 mmHg 50%
    16:00 +27°C° 0 mm 2 mps 725 mmHg 52%
    17:00 +25°C° 0 mm 2 mps 725 mmHg 59%
    18:00 +24°C° 0 mm 1 mps 725 mmHg 66%
    19:00 +22°C° 0 mm 1 mps 725 mmHg 72%
    20:00 +21°C° 0 mm 1 mps 725 mmHg 74%
    21:00 +20°C° 0 mm 1 mps 726 mmHg 76%
    22:00 +20°C° 0 mm 1 mps 726 mmHg 79%
    23:00 +19°C° 0 mm 1 mps 726 mmHg 80%

    19 August, Sunday

    Time Temperature Precipitation Wind Pressure Humidity
    00:00 +19°C° 0 mm 1 mps 726 mmHg 82%
    01:00 +18°C° 0 mm 1 mps 726 mmHg 84%
    02:00 +18°C° 0 mm 1 mps 726 mmHg 86%
    03:00 +18°C° 0 mm 1 mps 726 mmHg 88%
    04:00 +16°C° 0 mm 1 mps 726 mmHg 89%
    05:00 +19°C° 0 mm 1 mps 727 mmHg 86%
    06:00 +20°C° 0 mm 1 mps 727 mmHg 82%
    07:00 +20°C° 0 mm 2 mps 727 mmHg 78%
    08:00 +21°C° 0.1 mm 2 mps 727 mmHg 73%
    09:00 +24°C° 0.1 mm 2 mps 727 mmHg 67%
    10:00 +25°C° 0.1 mm 3 mps 727 mmHg 62%
    11:00 +25°C° 0.2 mm 3 mps 727 mmHg 59%
    12:00 +26°C° 0.2 mm 3 mps 727 mmHg 56%
    13:00 +27°C° 0.2 mm 3 mps 727 mmHg 53%
    14:00 +27°C° 0.1 mm 3 mps 727 mmHg 52%
    15:00 +26°C° 0.1 mm 3 mps 727 mmHg 50%
    16:00 +26°C° 0.1 mm 3 mps 727 mmHg 48%
    17:00 +24°C° 0 mm 2 mps 727 mmHg 53%
    18:00 +21°C° 0 mm 2 mps 727 mmHg 58%
    19:00 +20°C° 0 mm 1 mps 727 mmHg 63%
    20:00 +19°C° 0 mm 1 mps 727 mmHg 64%
    21:00 +18°C° 0 mm 1 mps 727 mmHg 65%
    22:00 +15°C° 0 mm 0 mps 727 mmHg 67%
    23:00 +16°C° 0 mm 1 mps 727 mmHg 67%

    20 August, Monday

    Time Temperature Precipitation Wind Pressure Humidity
    00:00 +16°C° 0 mm 1 mps 726 mmHg 68%
    01:00 +15°C° 0 mm 1 mps 726 mmHg 69%
    02:00 +15°C° 0 mm 1 mps 726 mmHg 70%
    03:00 +15°C° 0 mm 1 mps 726 mmHg 72%
    04:00 +15°C° 0 mm 1 mps 727 mmHg 73%
    05:00 +16°C° 0 mm 1 mps 727 mmHg 70%
    06:00 +19°C° 0 mm 1 mps 727 mmHg 67%
    07:00 +20°C° 0 mm 1 mps 727 mmHg 63%
    08:00 +22°C° 0 mm 1 mps 728 mmHg 59%
    09:00 +24°C° 0 mm 2 mps 728 mmHg 54%
    10:00 +25°C° 0 mm 2 mps 728 mmHg 49%
    11:00 +26°C° 0 mm 2 mps 728 mmHg 48%
    12:00 +27°C° 0 mm 2 mps 728 mmHg 47%
    13:00 +27°C° 0 mm 2 mps 728 mmHg 45%
    14:00 +27°C° 0 mm 2 mps 727 mmHg 47%
    15:00 +27°C° 0 mm 2 mps 727 mmHg 48%
    16:00 +27°C° 0 mm 3 mps 727 mmHg 50%
    17:00 +25°C° 0 mm 2 mps 727 mmHg 58%
    18:00 +23°C° 0 mm 1 mps 727 mmHg 65%
    19:00 +21°C° 0 mm 1 mps 727 mmHg 73%
    20:00 +20°C° 0 mm 1 mps 727 mmHg 75%
    21:00 +19°C° 0 mm 1 mps 727 mmHg 78%
    22:00 +19°C° 0 mm 1 mps 727 mmHg 80%
    23:00 +18°C° 0 mm 1 mps 727 mmHg 82%
    Show more